Location: Unspecified
(37.8433°N, 0.0000°E)
Time: 10:26:42
(UTC+00:00)

Cosmos 1299 - Visible Passes

Search period start: 04 April 2026 00:00
Search period end: 14 April 2026 00:00
Orbit: 911 x 978 km, 65.1° (Epoch: 28 March)

Date Brightness Start Highest point End Pass type
(mag) Time Alt. Az. Time Alt. Az. Time Alt. Az.
6 Apr 8.5 04:44:11 10° SSE 04:48:23 19° ESE 04:52:36 10° ENE visible
7 Apr 7.8 04:58:32 10° S 05:04:04 32° ESE 05:09:38 10° NE visible
9 Apr 8.6 03:46:50 10° SE 03:49:38 13° ESE 03:52:25 10° ENE visible
10 Apr 8.1 04:00:19 10° SSE 04:05:15 24° ESE 04:10:11 10° ENE visible
11 Apr 7.2 04:15:04 10° S 04:20:58 41° ESE 04:26:53 10° NE visible
12 Apr 6.3 04:30:30 10° SSW 04:36:50 69° ESE 04:43:11 10° NE visible
13 Apr 8.3 03:02:26 10° SE 03:06:26 18° ESE 03:10:26 10° ENE visible
13 Apr 6.0 04:46:26 10° SW 04:52:49 73° WNW 04:59:13 10° NNE visible
